Location: Gleizolles
(44.4833°N, 6.7667°E)
Time: 23:57:55
(UTC+00:00)

S-56A Canister/Altair - Pass Details

Date: 29 June 2024
Orbit: 638 x 2488 km, 38.9° (Epoch: 24 July)

Event Time Altitude Azimuth Distance (km) Brightness Sun altitude
Rises 02:14:47 0° 274° (W) 5,423 11.5 -13.3°
Reaches altitude 10° 02:20:39 10° 253° (WSW) 4,745 11.1 -12.6°
Maximum altitude 02:26:40 14° 227° (SW) 4,617 10.8 -11.9°
Drops below altitude 10° 02:33:08 10° 200° (SSW) 5,115 11.1 -11.2°
Sets 02:40:06 0° 180° (S) 6,134 11.7 -10.4°
